Location: Slanting_Bridge
(35.6330°N, 80.9830°W)
Time: 17:42:55
(UTC-05:00)

Hamsat - Visible Passes

Search period start: 04 March 2015 00:00
Search period end: 14 March 2015 01:00
Orbit: 590 x 625 km, 97.6° (Epoch: 04 March)

Date Brightness Start Highest point End Pass type
(mag) Time Alt. Az. Time Alt. Az. Time Alt. Az.
04 Mar ? 05:03:11 10° NE 05:06:19 20° E 05:09:34 10° SE visible
05 Mar ? 05:16:09 10° NE 05:19:53 29° E 05:23:39 10° SSE visible
06 Mar ? 05:29:18 10° NNE 05:33:23 41° E 05:37:29 10° S visible
07 Mar ? 05:42:35 10° NNE 05:46:52 61° E 05:51:09 10° S visible
08 Mar ? 06:55:57 10° NNE 07:00:17 90° ESE 07:04:37 10° SSW visible
09 Mar ? 07:09:25 10° N 07:13:41 62° WNW 07:17:58 10° SSW visible
10 Mar ? 05:48:47 10° ENE 05:50:54 14° E 05:53:15 10° SE visible
11 Mar ? 06:01:21 10° NE 06:04:27 20° E 06:07:42 10° SE visible
12 Mar ? 06:14:15 10° NE 06:17:58 28° E 06:21:45 10° SSE visible
13 Mar ? 06:27:21 10° NNE 06:31:26 40° E 06:35:32 10° SSE visible
